LogoCoinalyze
    Ad-Free Version Home Markten Financieringspercentages
    Futures data
    • Aggregated data (Munten)
    • Individuele grafieken
    • Globale grafieken
    Meldingen
    TA
    Bitcoin Ethereum BNB Ripple Tron ZCash Dogecoin Monero Chainlink UNUS SED LEO Cardano Stellar Lumens Bitcoin Cash Litecoin Hedera Cronos Polkadot Ethereum Classic Algorand Cosmos Quant Dash VeChain Bitcoin SV BitTorrent Terra Decred Tezos Iota The Graph THETA Decentraland NEO MultiversX Chiliz Horizen Golem Basic Attention Token Qtum 0x DigiByte Beam RIF Token FTX Token Holo FUNToken aelf Ontology Zilliqa Nano Enjin Coin Ravencoin Verge Mask Network Siacoin Status WINk Waves IoTeX iExec RLC Power Ledger Steem Lisk Kyber Network Crystal Ark WOO Network Ardor IOST WAX Icon Storj Wanchain Loopring Bitcoin Diamond Augur AdEx Bitcoin Gold OmiseGO NEM MonaCoin BitShares Ren Komodo V Systems Nuls Mithril SOLVE Maker EOS Aion Nebulas HedgeTrade Bread Waltonchain Polygon TomoChain Metaverse ETP Fetch.ai GXChain Fantom MaidSafeCoin Bytom QASH
    Rangschikken op:
    Meer
    • API
    • Candlestick-patronen
    • Doneer
    • Contact
    • Sitemap
    • Privacy Policy
    • Disclaimer
    • Theme:
    Nederlands
    • English
    • Français
    • Русский
    • Deutsch
    • Türkçe
    • Português (BR)
    • Español
    • 한국어
    • 简体中文
    • 日本語
     
    Aanmelden / Registreren
    Markets/ Pepe/ PEPE naar TRY/ PEPETRY Binance
    Trades
    WL
    Chat
    Stats
    Nieuws
    ⦷
    AAA
    0.00018400 92769576.00000000 17:13:13
    0.00018400 102400000.00000000 17:13:13
    0.00018399 92437440.00000000 17:13:12
    0.00018400 75178800.00000000 17:13:12
    0.00018400 93636413.00000000 17:13:10
    0.00018400 3451000.00000000 17:13:07
    0.00018400 102400000.00000000 17:13:07
    0.00018400 166057024.00000000 17:13:01
    0.00018398 52355750.00000000 17:13:01
    0.00018390 73202600.00000000 17:13:01
    0.00018400 50210600.00000000 17:12:58
    0.00018398 52189400.00000000 17:12:58
    0.00018399 50210600.00000000 17:12:57
    0.00018397 52189400.00000000 17:12:57
    0.00018392 7994069.00000000 17:12:57
    0.00018398 491359.00000000 17:12:57
    0.00018390 24591979.00000000 17:12:56
    0.00018391 52270876.00000000 17:12:56
    0.00018393 81451.00000000 17:12:56
    0.00018394 82764496.00000000 17:12:56
    0.00018395 52352347.00000000 17:12:56
    0.00018398 94939210.00000000 17:12:56
    0.00018400 5481179.00000000 17:12:55
    0.00018401 52189400.00000000 17:12:55
    0.00018402 52189400.00000000 17:12:55
    0.00018411 81400.00000000 17:12:44
    0.00018419 81423.00000000 17:12:42
    0.00018421 81418.00000000 17:12:42
    0.00018419 2260440.00000000 17:12:39
    0.00018413 162863.00000000 17:12:33
    0.00018417 81429.00000000 17:12:33
    0.00018423 34.00000000 17:12:33
    0.00018423 12148600.00000000 17:12:32
    0.00018433 3447000.00000000 17:12:20
    0.00018428 24258597.00000000 17:12:19
    0.00018427 81383.00000000 17:12:14
    0.00018435 52189400.00000000 17:12:13
    0.00018436 34.00000000 17:12:13
    0.00018436 73011700.00000000 17:12:13
    0.00018438 34.00000000 17:12:13
    0.00018438 73011700.00000000 17:12:13
    0.00018439 3256798.00000000 17:12:12
    0.00018438 3446000.00000000 17:12:12
    0.00018435 92114767.00000000 17:12:11
    0.00018435 34.00000000 17:12:11
    0.00018435 73011700.00000000 17:12:11
    0.00018436 706794.00000000 17:12:11
    0.00018438 34.00000000 17:12:11
    0.00018438 73011700.00000000 17:12:11
    0.00018442 162776.00000000 17:12:10
    0.00018440 81378.00000000 17:12:10
    0.00018433 492274.00000000 17:12:10
    0.00018433 25848563.00000000 17:12:10
    0.00018433 25848563.00000000 17:12:10
    0.00018434 26109660.00000000 17:12:05
    0.00018434 26109660.00000000 17:12:05
    0.00018433 231177.00000000 17:12:05
    0.00018433 2872062.00000000 17:12:05
    0.00018433 2872062.00000000 17:12:05
    0.00018433 46214099.00000000 17:12:05
    0.00018434 46214099.00000000 17:12:05
    0.00018434 46214099.00000000 17:12:05
    0.00018435 34.00000000 17:12:05
    0.00018435 73011700.00000000 17:12:05
    0.00018437 34.00000000 17:12:05
    0.00018437 73011700.00000000 17:12:05
    0.00018438 34.00000000 17:12:05
    0.00018438 73011700.00000000 17:12:05
    0.00018436 235023675.00000000 17:11:58
    0.00018435 78292251.00000000 17:11:58
    0.00018434 397419034.00000000 17:11:58
    0.00018430 3151091681.00000000 17:11:58
    0.00018430 3448000.00000000 17:11:58
    0.00018430 67471300.00000000 17:11:58
    0.00018430 3449000.00000000 17:11:58
    0.00018423 42749800.00000000 17:11:52
    0.00018417 42749800.00000000 17:11:35
    0.00018425 39301810.00000000 17:11:31
    0.00018425 3448000.00000000 17:11:31
    0.00018432 3449000.00000000 17:11:29
    0.00018425 90259512.00000000 17:11:25
    0.00018425 102400000.00000000 17:11:25
    0.00018422 42749800.00000000 17:11:21
    0.00018416 81491.00000000 17:11:15
    0.00018415 81524.00000000 17:11:15
    0.00018414 52270891.00000000 17:11:13
    0.00018412 52270911.00000000 17:11:11
    0.00018406 607899.00000000 17:11:09
    0.00018412 81491.00000000 17:11:04
    0.00018409 30161268.00000000 17:11:04
    0.00018408 22749800.00000000 17:11:02
    0.00018408 20000000.00000000 17:11:01
    0.00018409 50210600.00000000 17:11:00
    0.00018408 52189400.00000000 17:11:00
    0.00018409 126533800.00000000 17:10:58
    0.00018409 90492359.00000000 17:10:58
    0.00018409 95016977.00000000 17:10:58
    0.00018409 3450000.00000000 17:10:58
    0.00018400 50210600.00000000 17:10:46
    0.00018398 52189400.00000000 17:10:46
    Afmelden
    AAA
    Help
    🙂 🤣 😎 🤗 😛 😉 😜 🤑 🤔 😑 😴 😕 🙃 😲 😇 🙁 😢 😬 😟 😠 🕺 🏃 💪 ✌ 👌 👍 👎 👏 👋 🤝 🍺 🍻 🐋 🐟 🦈 🗽 🚄 ✈ 🛑 🚀 🏦 🌚 ⭐ 🌞 ⚡ 🏆 💰 💲 🔨 ❓ ❗ 💯 🔶 🏁
    ☺
    Aanmelden of Registreren en chat
    24 Uur
    Verandering
    +13.05%
    Volume
    1,183,192,841,278
    Hoog
    0.00018610
    Laag
    0.00016213
    7 Dagen
    Verandering
    -0.70%
    Volume
    6,350,982,753,617
    Hoog
    0.00019297
    Laag
    0.00016213
    30 Dagen
    Verandering
    +33.70%
    Volume
    38,613,942,365,648
    Hoog
    0.00021642
    Laag
    0.00012111
    DOGE, SHIB, PEPE, or Something Else: Which Meme Coin Can Make History in September? (3 AIs Weigh In)
    "DOGE remains the most likely to record the largest move in dollar terms and lead the entire sector," ChatGPT stated.
    cryptopotato.com
    Sept 3, 2026 00:41
    Pepe price rallies 25% as whale demand and futures interest surge
    Key takeaways Pepe has gained 25% this week, including a combined 22% advance over the previous two days. Seven whale transactions worth more than $1 million each occurred Thursday, the highest...
    coinjournal.net
    Aug 21, 2026 08:41
    PEPE Supply on Exchanges Just Took a Massive Hit – What’s Next?
    A drop in PEPE exchange balances has added to bullish expectations despite muted trader interest.
    cryptopotato.com
    Aug 6, 2026 20:02
    PEPE Exchange Outflows Hit Nearly 2-Year High as Whales Accumulate
    Pepe (PEPE) recorded its largest single-day exchange outflow since November 2024, with 4.54 trillion tokens leaving trading platforms, signaling that holders are moving supply away from immediate...
    beincrypto.com
    Aug 6, 2026 04:57
    Meme Coin Based on White House Shooter Conspiracy Rallies 320%
    $HENRY surged 300% after a 2023 Pepe tweet appeared to name the White House shooter, fueling a viral time-travel meme. The post Meme Coin Based on White House Shooter Conspiracy Rallies 320%...
    beincrypto.com
    Apr 27, 2026 16:11
    PEPE surges 4% as market sentiment improves, eyes Key resistance breakout
    Key takeaways Pepe extends gains on Wednesday, stretching its rally from the 50-day EMA. Derivatives data show heightened retail activity as risk-on sentiment returns to the market. Pepe (PEPE) is...
    coinjournal.net
    Apr 22, 2026 11:44
    Why The PEPE Price Could Stage A 55X Rally To Reach New $0.0001 ATH
    The PEPE price has now started to edge back into bullish conversations after the recent inflows into the crypto market. The last time PEPE’s weekly chart printed the kind of structure now...
    newsbtc.com
    Apr 21, 2026 15:30
    Pepe (PEPE) surges 9%, drawing interest from whales
    Key takeaways PEPE is up 9% in the last 24 hours, making it one of the best performers among the top 50 cryptocurrencies by market cap. The rally comes amid renewed interest from whales and retail...
    coinjournal.net
    Apr 16, 2026 07:40
    Murad Says SPX6900 (SPX) Is Primed for a Rally — Is He Right This Time?
    Crypto influencer Murad Mahmudov claims SPX6900 (SPX) is stabilizing at the same market cap level where Dogecoin (DOGE) and Pepe (PEPE) consolidated before their explosive rallies. The...
    beincrypto.com
    Apr 5, 2026 21:36
    The Shiba Inu Of This Cycle: Analyst Shares Why It Is Better To Buy PEPE Now
    In the bull market cycle of 2021-2022, the Shiba Inu meme coin made waves in a way that changed the face of meme coins forever. This came after Dogecoin’s initial 36,000% rally, and Shiba Inu...
    newsbtc.com
    Apr 4, 2026 07:30
    PEPE Explodes by 18% Amid Altcoin Rally, BTC Tapped $74K: Market Watch
    The frog-themed meme coin is today's biggest gainer, followed by TAO, DOT, and BONK.
    cryptopotato.com
    Mar 16, 2026 10:56
    Should PEPE traders brace for volatility as short squeeze potential builds?
    The memecoin market has seen its collective market capitalization drop by 48% over the past year, and 6.9% over the past month, according to CoinMarketCap. According to Glassnode, the memecoin...
    ambcrypto.com
    Mar 7, 2026 18:00
    Typ de opdracht simpelweg in de chat. Vervang nick1 door de echte nick
    • /ignore nick1 Negeer een chatgebruiker
    • /unignore nick1 Een chatgebruiker niet meer negeren
    • /ignorelist Toon chatgebruikers die je negeert